Amarillo, TX

3:00 PM CST on December 10, 2019 (GMT -0600)
Amarillo International

Weather History for KAMA - June, 2019

Change the Weather History Date:

Thursday, June 13, 2019

  Actual Average Record
Temperature  
Mean Temperature 70 °F 74 °F  
Max Temperature 85 °F 87 °F 106 °F (2011)
Min Temperature 54 °F 61 °F 45 °F (1947)
Degree Days  
Heating Degree Days 0 0  
Month to date heating degree days 4 5  
Since 1 June heating degree days 4 5  
Since 1 July heating degree days 4106 4176  
Cooling Degree Days 5 9  
Month to date cooling degree days 58 99  
Year to date cooling degree days 120 224  
Since 1 June cooling degree days 58 99  
Growing Degree Days 19 (Base 50)    
Moisture  
Dew Point 52 °F    
Average Humidity 57    
Maximum Humidity 77    
Minimum Humidity 37    
Precipitation  
Precipitation 0.09 in 0.12 in 1.46 in (1969)
Month to date precipitation 2.59 1.51  
Year to date precipitation 10.37 7.87  
Snow  
Snow 0.00 in 0.00 in T in (2002)
Month to date snowfall 0.0 0.0  
Since 1 June snowfall 0.0 0.0  
Since 1 July snowfall 8.1 17.8  
Snow Depth 0.00 in    
Sea Level Pressure  
Sea Level Pressure 29.99 in    
Wind  
Wind Speed 17 mph (SSE)    
Max Wind Speed 30 mph    
Max Gust Speed 39 mph    
Visibility 10 miles    
Events Rain , Thunderstorm    
T = Trace of Precipitation, MM = Missing Value Source: NWS Daily Summary

Daily Weather History Graph

Daily Weather History Graph

Search for Another Location

Airport or City:

Astronomy

Jun. 13, 2019 Rise Set
Actual Time 6:31 AM CDT 9:02 PM CDT
Civil Twilight 6:01 AM CDT 9:32 PM CDT
Nautical Twilight 5:25 AM CDT 10:08 PM CDT
Astronomical Twilight 4:44 AM CDT 10:49 PM CDT
Moon 5:27 PM CDT (6/13) 4:08 AM CDT (6/13)
Length of Visible Light 15h 30m
Length of Day
14h 30m
Waxing Gibbous, 85% of the Moon is Illuminated
Jun 13
Waxing Gibbous
Jun 17
Full
Jun 25
Last Quarter
Jul 2
New
Jul 9
First Quarter

Hourly Weather History & Observations

Time (CDT) Temp. Heat Index Dew Point Humidity Pressure Visibility Wind Dir Wind Speed Gust Speed Precip Events Conditions
12:53 AM 57.0 °F - 48.0 °F 72% 30.10 in 10.0 mi ESE 10.4 mph - N/A   Clear
1:53 AM 55.9 °F - 48.0 °F 75% 30.09 in 10.0 mi SE 8.1 mph - N/A   Clear
2:53 AM 55.9 °F - 46.0 °F 69% 30.09 in 10.0 mi SE 5.8 mph - N/A   Clear
3:53 AM 55.9 °F - 48.0 °F 75% 30.09 in 10.0 mi SE 6.9 mph - N/A   Clear
4:53 AM 55.9 °F - 46.0 °F 69% 30.09 in 10.0 mi SE 6.9 mph - N/A   Clear
5:53 AM 55.0 °F - 46.9 °F 74% 30.09 in 10.0 mi SE 9.2 mph - N/A   Clear
6:53 AM 55.9 °F - 46.9 °F 72% 30.08 in 10.0 mi SSE 12.7 mph - N/A   Clear
7:53 AM 60.1 °F - 46.9 °F 62% 30.08 in 10.0 mi SSE 10.4 mph - N/A   Clear
8:53 AM 64.0 °F - 48.0 °F 56% 30.09 in 10.0 mi South 18.4 mph - N/A   Clear
9:53 AM 70.0 °F - 48.9 °F 47% 30.07 in 10.0 mi South 20.7 mph 27.6 mph N/A   Clear
10:53 AM 73.0 °F - 48.9 °F 42% 30.06 in 10.0 mi South 20.7 mph 29.9 mph N/A   Clear
11:53 AM 75.0 °F - 50.0 °F 41% 30.04 in 10.0 mi South 23.0 mph 34.5 mph N/A   Clear
12:53 PM 78.1 °F - 52.0 °F 40% 30.02 in 10.0 mi South 26.5 mph 35.7 mph N/A   Clear
1:53 PM 80.1 °F 80.0 °F 54.0 °F 40% 29.98 in 10.0 mi South 23.0 mph 33.4 mph N/A   Partly Cloudy
2:53 PM 82.0 °F 81.4 °F 55.0 °F 39% 29.94 in 10.0 mi South 25.3 mph 34.5 mph N/A   Clear
3:53 PM 82.0 °F 81.4 °F 55.0 °F 39% 29.91 in 10.0 mi South 25.3 mph 32.2 mph N/A   Scattered Clouds
4:53 PM 84.0 °F 83.0 °F 55.9 °F 38% 29.88 in 10.0 mi South 25.3 mph 33.4 mph N/A   Scattered Clouds
5:53 PM 84.9 °F 83.6 °F 55.0 °F 36% 29.85 in 10.0 mi South 23.0 mph 35.7 mph N/A   Clear
6:53 PM 82.9 °F 82.0 °F 55.0 °F 38% 29.81 in 10.0 mi South 24.2 mph 32.2 mph N/A   Clear
7:53 PM 82.0 °F 81.4 °F 55.0 °F 39% 29.80 in 10.0 mi South 19.6 mph 27.6 mph N/A   Clear
8:53 PM 78.1 °F - 57.0 °F 48% 29.80 in 10.0 mi SSE 17.3 mph - N/A   Clear
9:53 PM 75.9 °F - 57.9 °F 54% 29.82 in 10.0 mi SSE 19.6 mph 27.6 mph N/A   Mostly Cloudy
10:21 PM 75.0 °F - 57.9 °F 55% 29.98 in 10.0 mi SSE 18.4 mph - N/A Thunderstorm Clear
10:53 PM 75.0 °F - 57.9 °F 55% 29.88 in 10.0 mi SE 15.0 mph - N/A Thunderstorm Mostly Cloudy
11:21 PM 71.1 °F - 57.9 °F 63% 30.07 in 10.0 mi NE 12.7 mph - N/A Thunderstorm Thunderstorm
11:35 PM 64.0 °F - 55.9 °F 75% 30.10 in 10.0 mi North 13.8 mph 35.7 mph 0.00 in Rain , Thunderstorm Light Rain
11:53 PM 62.1 °F - 57.0 °F 84% 29.98 in 9.0 mi NNE 15.0 mph - 0.03 in Rain , Thunderstorm Light Rain